Flag for Moldova Weather past 2 weeks in Bălți, Moldova

Now
30 °F

Chilly.


Feels Like: 25 °F
Forecast: 26 / 37 °F
Wind: 5 mph from South

Location: Baltsi-Leadoveni - The North of Moldova

Current Time: Jan 29, 2015 at 12:47:17 AM

Latest Report: Jan 29, 2015 at 12:00 AM


Visibility: 3 mi

Pressure: 29.86 "Hg

Humidity: 93%

Dew point: 28 °F

Location of BălțiLocation

Historic Weather in Bălți — Graph

°F

Bălți temperature yesterday

Maximum temperature yesterday: 32 °F (at 2:00 PM)
Minimum temperature yesterday: 28 °F (at 3:00 AM)
Average temperature yesterday: 31 °F

Past Weeks' High & Low Weather Summary

 TemperatureHumidityPressure
High45 °F (Jan 23, 1:00 PM)100% (Jan 15, 8:00 PM)30.24 "Hg (Jan 15, 8:00 PM)
Low27 °F (Jan 15, 6:00 AM)66% (Jan 14, 2:00 PM)29.86 "Hg (Jan 29, 12:00 AM)
Average33 °F96%30.05 "Hg
* Reported Midnight between Jan 13 and Jan 14 — Midnight between Jan 28 and Jan 29, Bălți, Weather by CustomWeather, © 2014

Note: Actual official high and low records may vary slightly from our data, if they occured in-between our weather recording intervals... More about our weather records

Advertising

Bălți weather history for previous 24 hours

 ConditionsComfort  
Time TempWeatherWind HumidityBarometerVisibility
12:00 AM
Jan 29
30 °FChilly.5 mph93%29.86 "Hg3 mi
11:00 PM
Jan 28
30 °FChilly.2 mph93%29.89 "Hg4 mi
10:00 PM30 °FChilly.2 mph100%29.89 "HgN/A
9:30 PM32 °FChilly.No wind93%29.89 "Hg6 mi
9:00 PM32 °FChilly.2 mph93%29.92 "Hg6 mi
8:30 PM32 °FChilly.No wind93%29.89 "Hg4 mi
8:00 PM32 °FChilly.No wind93%29.92 "Hg4 mi
7:00 PM32 °FChilly.No wind93%29.92 "Hg5 mi
6:30 PM32 °FChilly.No wind93%29.92 "Hg6 mi
6:00 PM32 °FChilly.No wind93%29.92 "Hg6 mi
5:00 PM32 °FOvercast.No wind93%29.92 "HgN/A
4:00 PM32 °FMore clouds than sun.3 mph93%29.92 "HgN/A
3:00 PM32 °FSnow flurries. Mostly cloudy.3 mph93%29.92 "Hg4 mi
2:00 PM32 °FSnow flurries. Ice fog.5 mph93%29.95 "Hg3 mi
1:30 PM30 °FSnow flurries. Ice fog.3 mph100%29.95 "Hg2 mi
1:00 PM30 °FSnow flurries. Ice fog.3 mph100%29.95 "Hg2 mi
12:30 PM30 °FLight snow. Ice fog.3 mph100%29.98 "Hg3 mi
12:00 PM30 °FLight snow. Ice fog.3 mph100%29.98 "Hg3 mi
11:00 AM30 °FIce fog.6 mph100%29.98 "Hg3 mi
10:00 AM30 °FLight snow. Ice fog.6 mph100%29.98 "Hg1 mi
9:00 AM30 °FLow clouds.5 mph93%29.98 "Hg1 mi
8:00 AM28 °FChilly.5 mph100%29.98 "Hg1 mi
7:00 AM28 °FChilly.6 mph100%29.95 "Hg1 mi
6:00 AM30 °FChilly.5 mph93%29.95 "Hg1 mi
5:00 AM30 °FChilly.5 mph93%29.95 "Hg2 mi
4:00 AM30 °FChilly.6 mph93%29.95 "Hg2 mi
3:00 AM28 °FChilly.6 mph100%29.98 "Hg2 mi
2:00 AM30 °FChilly.6 mph93%29.98 "Hg2 mi
1:30 AM30 °FChilly.7 mph93%29.98 "Hg3 mi
1:00 AM30 °FChilly.7 mph100%29.98 "Hg3 mi
12:00 AM30 °FChilly.6 mph100%29.98 "Hg3 mi
Weather by CustomWeather, © 2014

See weather overviewHow to use our weather pages